EW9532 Weather Reports


time (UTC)temp
F
wind
direction
speed
knots
gust
knots
rain 1hr
in
rain 24hr
in
rain mn
in
humidity
%
barometer
mb
20260903220529 102 266 3.5 11.3 0.00 0.00 0.00 42 1009.4
20260903220059 102 287 3.5 7.0 0.00 0.00 0.00 41 1009.8
20260903220029 102 335 4.3 7.8 0.00 0.00 0.00 42 1009.5
20260903215529 103 18 2.6 7.8 0.00 0.00 0.00 42 1009.5
20260903215029 103 71 4.3 8.7 0.00 0.00 0.00 41 1009.5
20260903214759 103 62 4.3 8.7 0.00 0.00 0.00 42 1009.4
20260903214553 102 292 2.6 7.8 0.00 0.00 0.00 41 1009.7
20260903214028 102 344 4.3 7.8 0.00 0.00 0.00 42 1009.6
20260903213530 103 242 2.6 8.7 0.00 0.00 0.00 42 1009.5
20260903213143 102 78 3.5 10.4 0.00 0.00 0.00 42 1009.9
20260903213031 103 86 3.5 10.4 0.00 0.00 0.00 42 1009.6
20260903212529 102 343 2.6 10.4 0.00 0.00 0.00 44 1009.6
20260903212029 102 16 2.6 9.6 0.00 0.00 0.00 44 1009.6
20260903211752 102 53 4.3 8.7 0.00 0.00 0.00 44 1009.6
20260903211556 102 25 4.3 9.6 0.00 0.00 0.00 44 1009.9
20260903211028 103 198 4.3 7.8 0.00 0.00 0.00 43 1009.7
20260903210529 102 289 3.5 9.6 0.00 0.00 0.00 44 1009.7
20260903210058 104 238 3.5 10.4 0.00 0.00 0.00 42 1010.1
20260903210029 104 287 5.2 9.6 0.00 0.00 0.00 42 1009.8
20260903205530 104 281 2.6 7.8 0.00 0.00 0.00 43 1009.8
20260903205029 103 307 3.5 7.8 0.00 0.00 0.00 45 1009.9
20260903204553 103 87 3.5 7.8 0.00 0.00 0.00 45 1010.2
20260903204529 103 215 3.5 7.8 0.00 0.00 0.00 46 1009.9
20260903204253 103 44 3.5 8.7 0.00 0.00 0.00 45 1010.1
20260903203756 103 335 3.5 8.7 0.00 0.00 0.00 46 1009.9
20260903203059 103 157 2.6 7.8 0.00 0.00 0.00 44 1010.3
20260903203043 104 346 3.5 7.8 0.00 0.00 0.00 44 1010.0
20260903202534 104 150 2.6 7.8 0.00 0.00 0.00 45 1010.1
20260903202042 104 213 3.5 7.0 0.00 0.00 0.00 46 1010.0
20260903201606 103 297 2.6 7.0 0.00 0.00 0.00 45 1010.5
20260903201543 103 72 3.5 7.8 0.00 0.00 0.00 45 1010.2
20260903201259 103 3 3.5 7.8 0.00 0.00 0.00 46 1010.2
20260903200526 103 321 2.6 6.1 0.00 0.00 0.00 47 1010.4
20260903200243 103 219 2.6 6.1 0.00 0.00 0.00 45 1010.3
20260903200056 103 169 2.6 6.1 0.00 0.00 0.00 45 1010.6
20260903195522 105 226 2.6 7.0 0.00 0.00 0.00 44 1010.4
20260903195016 104 236 2.6 7.0 0.00 0.00 0.00 44 1010.5
20260903194626 103 333 1.7 7.0 0.00 0.00 0.00 44 1010.9
20260903194517 104 58 1.7 7.0 0.00 0.00 0.00 43 1010.5
20260903194227 104 161 3.5 6.1 0.00 0.00 0.00 43 1010.6
20260903193509 103 11 1.7 6.1 0.00 0.00 0.00 44 1010.8
20260903193101 102 328 3.5 7.0 0.00 0.00 0.00 43 1011.1
20260903193008 103 356 3.5 6.1 0.00 0.00 0.00 44 1010.9
20260903192508 103 63 3.5 6.1 0.00 0.00 0.00 44 1010.8
20260903192006 103 270 3.5 7.0 0.00 0.00 0.00 44 1011.0
20260903191554 103 185 0.9 7.8 0.00 0.00 0.00 45 1011.3
20260903191506 103 208 1.7 7.8 0.00 0.00 0.00 45 1011.1
20260903191000 103 143 1.7 7.8 0.00 0.00 0.00 44 1011.1
20260903190454 103 313 1.7 7.0 0.00 0.00 0.00 45 1011.3
20260903190218 103 26 3.5 7.0 0.00 0.00 0.00 44 1011.3
20260903190054 102 42 3.5 7.0 0.00 0.00 0.00 45 1011.7
20260903185447 103 304 1.7 5.2 0.00 0.00 0.00 46 1011.6
20260903184942 103 245 1.7 4.3 0.00 0.00 0.00 45 1011.7
20260903184557 102 280 1.7 7.8 0.00 0.00 0.00 46 1011.9
20260903184438 102 301 1.7 7.8 0.00 0.00 0.00 47 1011.8
20260903183933 101 293 2.6 9.6 0.00 0.00 0.00 48 1011.8
20260903183432 101 143 5.2 9.6 0.00 0.00 0.00 47 1011.9
20260903183131 100 5 2.6 7.0 0.00 0.00 0.00 47 1012.2
20260903182946 101 349 3.5 7.8 0.00 0.00 0.00 47 1012.0
20260903182431 101 98 1.7 7.8 0.00 0.00 0.00 48 1012.2
20260903181933 101 66 3.5 7.8 0.00 0.00 0.00 48 1012.2
20260903181604 100 281 1.7 7.8 0.00 0.00 0.00 48 1012.5
20260903181431 100 172 1.7 7.0 0.00 0.00 0.00 49 1012.4
20260903180929 100 195 2.6 10.4 0.00 0.00 0.00 49 1012.4
20260903180423 100 259 4.3 10.4 0.00 0.00 0.00 49 1012.6
20260903180109 100 120 2.6 7.0 0.00 0.00 0.00 47 1012.8
20260903175925 100 181 2.6 7.0 0.00 0.00 0.00 49 1012.7
20260903175420 99 20 3.5 8.7 0.00 0.00 0.00 49 1012.7
20260903174915 99 297 3.5 8.7 0.00 0.00 0.00 49 1012.7
20260903174555 99 174 2.6 7.0 0.00 0.00 0.00 49 1013.1
20260903174410 100 297 2.6 7.8 0.00 0.00 0.00 50 1012.9
20260903173904 99 198 2.6 7.8 0.00 0.00 0.00 50 1013.0
20260903173403 99 279 3.5 7.8 0.00 0.00 0.00 51 1012.9
20260903173109 98 96 2.6 8.7 0.00 0.00 0.00 52 1013.3
20260903172902 99 52 2.6 7.8 0.00 0.00 0.00 51 1013.2
20260903172402 98 203 2.6 7.8 0.00 0.00 0.00 52 1013.2
20260903171902 98 221 2.6 7.0 0.00 0.00 0.00 52 1013.2
20260903171602 97 9 3.5 7.0 0.00 0.00 0.00 52 1013.5
20260903171403 98 50 3.5 7.0 0.00 0.00 0.00 52 1013.5
20260903171126 98 334 2.6 7.0 0.00 0.00 0.00 52 1013.6
20260903170403 97 8 3.5 7.0 0.00 0.00 0.00 54 1013.7
20260903170058 96 230 3.5 7.8 0.00 0.00 0.00 53 1013.9
20260903165903 97 205 2.6 8.7 0.00 0.00 0.00 54 1013.6
20260903165402 96 169 3.5 8.7 0.00 0.00 0.00 57 1013.7
20260903164902 96 281 3.5 9.6 0.00 0.00 0.00 56 1013.9
20260903164609 96 51 3.5 9.6 0.00 0.00 0.00 56 1014.1
20260903164402 96 89 2.6 9.6 0.00 0.00 0.00 56 1013.9
20260903163903 96 238 3.5 9.6 0.00 0.00 0.00 56 1014.0
20260903163402 95 115 3.5 9.6 0.00 0.00 0.00 57 1013.9
20260903163137 94 119 3.5 10.4 0.00 0.00 0.00 58 1014.0
20260903162902 95 217 3.5 8.7 0.00 0.00 0.00 59 1014.0
20260903162402 95 257 5.2 8.7 0.00 0.00 0.00 59 1014.0
20260903162124 94 116 2.6 7.8 0.00 0.00 0.00 59 1014.0
20260903161602 94 6 3.5 7.8 0.00 0.00 0.00 59 1014.2
20260903161401 94 295 2.6 7.8 0.00 0.00 0.00 60 1014.0
20260903160901 94 261 2.6 5.2 0.00 0.00 0.00 61 1014.1
20260903160400 93 341 3.5 9.6 0.00 0.00 0.00 62 1014.1
20260903160100 92 58 3.5 10.4 0.00 0.00 0.00 61 1014.2
20260903155902 93 259 4.3 9.6 0.00 0.00 0.00 62 1014.1
20260903155403 92 263 3.5 8.7 0.00 0.00 0.00 64 1013.9
20260903155126 92 205 3.5 9.6 0.00 0.00 0.00 65 1014.0
20260903155111 92 175 3.5 9.6 0.00 0.00 0.00 65 1013.9
20260903154554 91 105 3.5 8.7 0.00 0.00 0.00 64 1014.1
20260903153856 92 123 3.5 8.7 0.00 0.00 0.00 65 1013.9
20260903153355 91 331 1.7 7.8 0.00 0.00 0.00 66 1014.0
20260903153348 91 205 3.5 9.6 0.00 0.00 0.00 68 1014.1
20260903153106 90 174 2.6 8.7 0.00 0.00 0.00 67 1014.2
20260903152346 90 162 3.5 10.4 0.00 0.00 0.00 68 1014.2
20260903151842 89 264 5.2 10.4 0.00 0.00 0.00 70 1014.3
20260903151604 89 55 3.5 8.7 0.00 0.00 0.00 69 1014.4
20260903151343 89 248 3.5 7.8 0.00 0.00 0.00 71 1014.3
20260903150833 89 198 5.2 7.8 0.00 0.00 0.00 72 1014.2
20260903150329 89 168 3.5 7.0 0.00 0.00 0.00 73 1014.3
20260903150139 88 184 3.5 10.4 0.00 0.00 0.00 73 1014.5
20260903150106 88 54 3.5 8.7 0.00 0.00 0.00 74 1014.3
20260903145329 88 224 4.3 8.7 0.00 0.00 0.00 74 1014.3
20260903144829 87 340 3.5 8.7 0.00 0.00 0.00 75 1014.2
20260903144559 87 238 2.6 7.0 0.00 0.00 0.00 75 1014.5
20260903144328 87 273 3.5 7.0 0.00 0.00 0.00 75 1014.2
20260903143829 87 63 3.5 10.4 0.00 0.00 0.00 77 1014.2
20260903143328 87 150 3.5 10.4 0.00 0.00 0.00 77 1014.3
20260903143057 86 226 4.3 10.4 0.00 0.00 0.00 77 1014.5
20260903142831 87 216 3.5 8.7 0.00 0.00 0.00 77 1014.3
20260903142329 86 122 3.5 12.2 0.00 0.00 0.00 79 1014.3
20260903141829 86 11 3.5 12.2 0.00 0.00 0.00 79 1014.2
20260903141606 85 167 2.6 12.2 0.00 0.00 0.00 79 1014.5
20260903141328 86 283 1.7 7.0 0.00 0.00 0.00 80 1014.3
20260903140828 85 200 1.7 7.0 0.00 0.00 0.00 81 1014.5
20260903140328 85 203 1.7 7.0 0.00 0.00 0.00 81 1014.3
20260903140105 85 354 0.9 7.0 0.00 0.00 0.00 81 1014.6
20260903135831 85 252 1.7 7.0 0.00 0.00 0.00 82 1014.4
20260903135600 84 300 1.7 5.2 0.00 0.00 0.00 83 1014.3
20260903134830 84 109 2.6 6.1 0.00 0.00 0.00 83 1014.5
20260903134612 83 22 0.9 7.0 0.00 0.00 0.00 83 1014.5
20260903134556 84 230 1.7 7.0 0.00 0.00 0.00 84 1014.4
20260903133830 83 306 2.6 7.0 0.00 0.00 0.00 84 1014.3
20260903133330 83 101 1.7 4.3 0.00 0.00 0.00 84 1014.3
20260903133101 83 242 1.7 5.2 0.00 0.00 0.00 84 1014.4
20260903132829 83 247 0.9 5.2 0.00 0.00 0.00 85 1014.2
20260903132606 83 159 0.9 5.2 0.00 0.00 0.00 85 1014.3
20260903131829 83 189 1.7 5.2 0.00 0.00 0.00 85 1014.2
20260903131557 82 245 1.7 6.1 0.00 0.00 0.00 85 1014.3
20260903131329 83 150 2.6 5.2 0.00 0.00 0.00 85 1014.1
20260903130828 82 270 1.7 5.2 0.00 0.00 0.00 86 1014.0
20260903130328 82 152 1.7 4.3 0.00 0.00 0.00 86 1014.1
20260903130109 82 80 0.9 3.5 0.00 0.00 0.00 86 1014.4
20260903125830 82 217 0.9 3.5 0.00 0.00 0.00 86 1014.1
20260903125554 82 6 0.9 5.2 0.00 0.00 0.00 86 1014.1
20260903124829 82 341 1.7 5.2 0.00 0.00 0.00 86 1014.1
20260903124610 81 182 0.0 7.0 0.00 0.00 0.00 86 1014.2
20260903124552 82 271 0.9 5.2 0.00 0.00 0.00 86 1014.0
20260903124052 82 245 0.9 3.5 0.00 0.00 0.00 86 1013.9
20260903123329 82 354 0.9 4.3 0.00 0.00 0.00 86 1013.9
20260903123112 81 288 0.0 4.3 0.00 0.00 0.00 86 1014.2
20260903122830 82 122 0.9 4.3 0.00 0.00 0.00 86 1014.0
20260903122330 82 226 1.7 5.2 0.00 0.00 0.00 86 1013.9
20260903121829 82 324 1.7 5.2 0.00 0.00 0.00 86 1013.8
20260903121557 81 304 1.7 5.2 0.00 0.00 0.00 86 1014.1
20260903121329 82 157 1.7 5.2 0.00 0.00 0.00 86 1013.9
20260903120828 82 239 0.9 4.3 0.00 0.00 0.00 86 1014.0
20260903120329 82 65 1.7 4.3 0.00 0.00 0.00 86 1013.9
20260903120117 81 211 0.9 2.6 0.00 0.00 0.00 86 1014.1
20260903120106 82 193 0.0 2.6 0.00 0.00 0.00 86 1014.0
20260903115330 82 246 1.7 4.3 0.00 0.00 0.00 86 1013.9
20260903115054 82 275 1.7 5.2 0.00 0.00 0.00 86 1013.9
20260903114608 81 255 0.9 5.2 0.00 0.00 0.00 86 1014.1
20260903114330 82 316 1.7 5.2 0.00 0.00 0.00 86 1013.8
20260903113839 82 268 1.7 4.3 0.00 0.00 0.00 86 1013.7
20260903113328 82 41 2.6 4.3 0.00 0.00 0.00 86 1013.7
20260903113107 82 218 0.0 5.2 0.00 0.00 0.00 85 1013.9
20260903113054 82 107 0.9 5.2 0.00 0.00 0.00 86 1013.7
20260903112329 82 172 2.6 5.2 0.00 0.00 0.00 86 1013.9
20260903111829 82 244 1.7 4.3 0.00 0.00 0.00 86 1013.8
20260903111553 82 59 0.9 4.3 0.00 0.00 0.00 85 1014.0
20260903111329 82 180 1.7 4.3 0.00 0.00 0.00 86 1013.8
20260903110829 82 230 1.7 4.3 0.00 0.00 0.00 86 1013.8
20260903110328 82 31 0.9 4.3 0.00 0.00 0.00 85 1013.8
20260903110105 82 353 1.7 5.2 0.00 0.00 0.00 85 1014.0
20260903105836 82 203 1.7 4.3 0.00 0.00 0.00 85 1013.9
20260903105332 82 3 0.9 5.2 0.00 0.00 0.00 85 1013.7
20260903104843 82 39 1.7 5.2 0.00 0.00 0.00 85 1013.7
20260903104556 82 31 0.9 4.3 0.00 0.00 0.00 84 1013.8
20260903104332 83 323 0.9 5.2 0.00 0.00 0.00 85 1013.7
20260903103833 83 309 0.9 5.2 0.00 0.00 0.00 85 1013.7
20260903103328 83 167 1.7 6.1 0.00 0.00 0.00 85 1013.5
20260903103056 82 350 1.7 7.0 0.00 0.00 0.00 84 1013.8
20260903102829 83 101 1.7 7.0 0.00 0.00 0.00 85 1013.5
20260903102551 83 286 1.7 7.0 0.00 0.00 0.00 85 1013.6
20260903102108 83 83 1.7 7.0 0.00 0.00 0.00 84 1013.6
20260903101552 82 174 1.7 7.0 0.00 0.00 0.00 84 1013.8
20260903101329 83 50 1.7 7.0 0.00 0.00 0.00 84 1013.6
20260903100829 83 184 1.7 5.2 0.00 0.00 0.00 84 1013.6
20260903100552 83 69 2.6 5.2 0.00 0.00 0.00 84 1013.7
20260903100105 82 270 1.7 7.0 0.00 0.00 0.00 83 1013.8
20260903095830 83 354 1.7 6.1 0.00 0.00 0.00 84 1013.6
20260903095331 83 143 2.6 7.8 0.00 0.00 0.00 84 1013.7
20260903094832 83 166 2.6 7.8 0.00 0.00 0.00 84 1013.6
20260903094558 83 302 1.7 7.0 0.00 0.00 0.00 83 1013.9
20260903094330 83 288 3.5 7.8 0.00 0.00 0.00 83 1013.7
20260903093830 83 165 1.7 7.0 0.00 0.00 0.00 83 1013.8
20260903093329 83 333 3.5 7.8 0.00 0.00 0.00 83 1014.0
20260903093058 83 198 3.5 8.7 0.00 0.00 0.00 83 1014.2
20260903092829 83 4 2.6 7.8 0.00 0.00 0.00 83 1013.9
20260903092329 83 266 2.6 7.0 0.00 0.00 0.00 83 1014.1
20260903091829 83 18 3.5 8.7 0.00 0.00 0.00 83 1014.0
20260903091626 83 310 2.6 8.7 0.00 0.00 0.00 83 1014.2
20260903091329 83 183 1.7 9.6 0.00 0.00 0.00 83 1013.9
20260903090828 83 307 4.3 9.6 0.00 0.00 0.00 83 1014.0
20260903090616 83 246 3.5 10.4 0.00 0.00 0.00 83 1014.1
20260903085829 83 257 3.5 10.4 0.00 0.00 0.00 83 1014.1
20260903085329 83 149 3.5 8.7 0.00 0.00 0.00 83 1014.2
20260903084829 83 208 3.5 8.7 0.00 0.00 0.00 83 1014.0
20260903084558 83 290 4.3 8.7 0.00 0.00 0.00 82 1014.4
20260903084329 83 278 5.2 8.7 0.00 0.00 0.00 83 1014.2
20260903083829 83 53 2.6 8.7 0.00 0.00 0.00 83 1014.2
20260903083329 83 144 1.7 7.0 0.00 0.00 0.00 83 1014.3
20260903083106 83 287 2.6 6.1 0.00 0.00 0.00 82 1014.5
20260903082830 84 271 3.5 5.2 0.00 0.00 0.00 82 1014.4
20260903082330 84 274 2.6 9.6 0.00 0.00 0.00 82 1014.3
20260903081830 84 41 2.6 9.6 0.00 0.00 0.00 82 1014.2
20260903081607 83 203 2.6 8.7 0.00 0.00 0.00 82 1014.6
20260903081330 84 12 1.7 7.0 0.00 0.00 0.00 82 1014.2
20260903080828 84 348 3.5 5.2 0.00 0.00 0.00 82 1014.3
20260903080556 84 244 1.7 5.2 0.00 0.00 0.00 82 1014.3
20260903080103 83 162 2.6 7.8 0.00 0.00 0.00 82 1014.5
20260903075829 84 203 2.6 7.0 0.00 0.00 0.00 82 1014.3
20260903075329 84 354 1.7 7.0 0.00 0.00 0.00 82 1014.3
20260903074829 84 13 2.6 7.0 0.00 0.00 0.00 82 1014.3
20260903074627 84 356 1.7 10.4 0.00 0.00 0.00 82 1014.5
20260903074555 84 339 2.6 10.4 0.00 0.00 0.00 82 1014.3
20260903073828 84 126 2.6 10.4 0.00 0.00 0.00 82 1014.3
20260903073329 84 168 3.5 7.8 0.00 0.00 0.00 82 1014.3
20260903073059 84 205 3.5 7.0 0.00 0.00 0.00 81 1014.5
20260903072831 84 216 3.5 7.8 0.00 0.00 0.00 82 1014.2
20260903072330 84 228 3.5 9.6 0.00 0.00 0.00 82 1014.3
20260903072314 84 314 3.5 9.6 0.00 0.00 0.00 81 1014.2
20260903071607 84 216 3.5 10.4 0.00 0.00 0.00 81 1014.5
20260903071330 85 324 3.5 7.8 0.00 0.00 0.00 81 1014.5
20260903071323 85 29 3.5 13.9 0.00 0.00 0.00 81 1014.5
20260903070328 85 340 5.2 13.9 0.00 0.00 0.00 81 1014.5
20260903070115 84 151 2.6 8.7 0.00 0.00 0.00 80 1014.6
20260903065829 85 245 3.5 7.0 0.00 0.00 0.00 81 1014.5
20260903065329 85 262 3.5 7.0 0.00 0.00 0.00 81 1014.4
20260903064829 85 60 3.5 8.7 0.00 0.00 0.00 81 1014.6
20260903064555 84 41 2.6 8.7 0.00 0.00 0.00 81 1014.6
20260903064552 85 56 3.5 8.7 0.00 0.00 0.00 81 1014.6
20260903063829 85 268 4.3 7.8 0.00 0.00 0.00 81 1014.6
20260903063328 85 290 1.7 8.7 0.00 0.00 0.00 81 1014.5
20260903063105 84 296 2.6 13.9 0.00 0.00 0.00 81 1014.7
20260903063056 85 101 3.5 11.3 0.00 0.00 0.00 81 1014.6
20260903062556 85 288 3.5 11.3 0.00 0.00 0.00 81 1014.6
20260903061829 85 198 3.5 7.0 0.00 0.00 0.00 81 1014.5
20260903061611 84 212 1.7 7.8 0.00 0.00 0.00 81 1014.7
20260903061329 85 304 0.9 6.1 0.00 0.00 0.00 82 1014.6
20260903061054 85 132 2.6 7.0 0.00 0.00 0.00 81 1014.6
20260903060328 85 250 2.6 8.7 0.00 0.00 0.00 81 1014.6
20260903060100 85 259 2.6 7.8 0.00 0.00 0.00 81 1014.8
20260903055830 85 98 3.5 8.7 0.00 0.00 0.00 81 1014.6
20260903055330 85 112 2.6 7.0 0.00 0.00 0.00 81 1014.7
20260903055101 85 103 1.7 8.7 0.00 0.00 0.00 81 1014.7
20260903054602 85 149 3.5 8.7 0.00 0.00 0.00 80 1014.9
20260903054329 85 53 3.5 8.7 0.00 0.00 0.00 81 1014.7
20260903053829 85 172 0.9 7.8 0.00 0.00 0.00 80 1014.7
20260903053329 85 85 3.5 7.8 0.00 0.00 0.00 80 1014.7
20260903053101 85 342 2.6 8.7 0.00 0.00 0.00 80 1014.9
20260903052830 85 184 2.6 6.1 0.00 0.00 0.00 80 1014.6
20260903052555 85 168 2.6 6.1 0.00 0.00 0.00 81 1014.6
20260903051830 85 271 2.6 7.0 0.00 0.00 0.00 81 1014.7
20260903051603 85 314 2.6 7.0 0.00 0.00 0.00 80 1014.9
20260903051330 85 160 1.7 7.8 0.00 0.00 0.00 81 1014.7
20260903050830 85 284 1.7 8.7 0.00 0.00 0.00 80 1014.7
20260903050552 86 146 2.6 8.7 0.00 0.00 0.00 80 1014.7
20260903050111 85 156 2.6 12.2 0.00 0.00 0.00 80 1014.9
20260903045829 86 321 2.6 8.7 0.00 0.00 0.00 80 1014.8
20260903045329 86 240 2.6 8.7 0.00 0.00 0.00 80 1014.7
20260903044829 86 63 1.7 7.8 0.00 0.00 0.00 80 1014.9
20260903044605 85 301 2.6 8.7 0.00 0.00 0.00 79 1015.0
20260903044329 86 242 4.3 7.8 0.00 0.00 0.00 80 1014.8
20260903043829 86 261 2.6 11.3 0.00 0.00 0.00 79 1014.9
20260903043551 86 330 2.6 11.3 0.00 0.00 0.00 79 1014.9
20260903043103 85 274 3.5 11.3 0.00 0.00 0.00 78 1015.2
20260903042829 86 342 3.5 7.0 0.00 0.00 0.00 79 1015.1
20260903042329 86 90 1.7 8.7 0.00 0.00 0.00 78 1015.1
20260903041829 86 293 4.3 8.7 0.00 0.00 0.00 78 1015.0
20260903041611 86 145 2.6 11.3 0.00 0.00 0.00 77 1015.3
20260903041328 86 124 3.5 7.8 0.00 0.00 0.00 77 1015.0
20260903040828 86 345 2.6 8.7 0.00 0.00 0.00 77 1015.0
20260903040329 86 238 3.5 9.6 0.00 0.00 0.00 77 1015.0
20260903040109 86 64 5.2 9.6 0.00 0.00 0.00 77 1015.2
20260903040106 87 187 5.2 9.6 0.00 0.00 0.00 77 1015.0
20260903035332 87 60 2.6 7.0 0.00 0.00 0.00 77 1015.0
20260903034844 87 165 3.5 8.7 0.00 0.00 0.00 77 1014.9
20260903034600 86 249 4.3 10.4 0.00 0.00 0.00 77 1015.0
20260903034330 87 52 4.3 9.6 0.00 0.00 0.00 77 1014.9
20260903033830 87 237 3.5 11.3 0.00 0.00 0.00 76 1014.9
20260903033329 87 43 2.6 11.3 0.00 0.00 0.00 76 1014.9
20260903033101 86 40 4.3 10.4 0.00 0.00 0.00 76 1015.0
20260903032829 87 115 5.2 11.3 0.00 0.00 0.00 76 1014.8
20260903032329 87 349 3.5 11.3 0.00 0.00 0.00 76 1014.7
20260903031829 87 129 3.5 9.6 0.00 0.00 0.00 76 1014.5
20260903031556 87 255 3.5 9.6 0.00 0.00 0.00 75 1014.9
20260903031329 87 269 1.7 7.8 0.00 0.00 0.00 76 1014.5
20260903031051 87 160 3.5 7.8 0.00 0.00 0.00 76 1014.6
20260903030328 87 208 3.5 6.1 0.00 0.00 0.00 76 1014.3
20260903025831 87 284 2.6 9.6 0.00 0.00 0.00 75 1014.2
20260903025811 87 96 4.3 11.3 0.00 0.00 0.00 75 1014.2
20260903024830 87 308 4.3 11.3 0.00 0.00 0.00 75 1014.1
20260903024604 87 35 2.6 9.6 0.00 0.00 0.00 74 1014.1
20260903024343 87 195 4.3 8.7 0.00 0.00 0.00 75 1014.1
20260903023841 88 339 4.3 8.7 0.00 0.00 0.00 75 1013.9
20260903023337 88 290 5.2 8.7 0.00 0.00 0.00 75 1013.7
20260903023057 87 263 4.3 10.4 0.00 0.00 0.00 74 1014.0
20260903022831 88 86 4.3 9.6 0.00 0.00 0.00 75 1013.7
20260903022331 88 309 5.2 9.6 0.00 0.00 0.00 74 1013.6
20260903021830 88 332 4.3 8.7 0.00 0.00 0.00 74 1013.6
20260903021555 88 306 3.5 9.6 0.00 0.00 0.00 73 1013.7
20260903021330 88 136 4.3 8.7 0.00 0.00 0.00 73 1013.4
20260903021105 89 75 3.5 9.6 0.00 0.00 0.00 73 1013.3
20260903020606 89 321 3.5 9.6 0.00 0.00 0.00 72 1013.2
20260903020117 89 257 3.5 11.3 0.00 0.00 0.00 71 1013.1
20260903020058 88 295 5.2 10.4 0.00 0.00 0.00 71 1013.3
20260903015552 89 359 5.2 11.3 0.00 0.00 0.00 70 1012.9
20260903015317 89 76 3.5 11.3 0.00 0.00 0.00 70 1012.9
20260903014613 89 337 3.5 11.3 0.00 0.00 0.00 68 1013.1
20260903014329 90 39 2.6 11.3 0.00 0.00 0.00 68 1012.8
20260903013828 90 152 5.2 8.7 0.00 0.00 0.00 67 1012.9
20260903013329 91 316 4.3 10.4 0.00 0.00 0.00 66 1012.8
20260903013107 90 248 4.3 11.3 0.00 0.00 0.00 65 1013.0
20260903012814 91 129 5.2 10.4 0.00 0.00 0.00 65 1012.7
20260903012551 91 221 5.2 9.6 0.00 0.00 0.00 64 1012.6
20260903011809 92 181 3.5 8.7 0.00 0.00 0.00 62 1012.5
20260903011622 91 37 4.3 9.6 0.00 0.00 0.00 61 1012.5
20260903011306 92 185 4.3 9.6 0.00 0.00 0.00 61 1012.4
20260903010806 92 65 3.5 9.6 0.00 0.00 0.00 60 1012.3
20260903010301 93 167 4.3 7.8 0.00 0.00 0.00 58 1012.2
20260903010108 92 47 3.5 9.6 0.00 0.00 0.00 57 1012.3
20260903005802 93 315 2.6 8.7 0.00 0.00 0.00 57 1012.1
20260903005259 93 232 4.3 8.7 0.00 0.00 0.00 57 1012.1
20260903004753 94 162 3.5 7.8 0.00 0.00 0.00 56 1012.0
20260903004608 93 184 4.3 8.7 0.00 0.00 0.00 56 1012.2
20260903004249 94 242 3.5 7.8 0.00 0.00 0.00 56 1012.0
20260903003744 95 21 2.6 7.8 0.00 0.00 0.00 54 1011.9
20260903003238 95 259 3.5 9.6 0.00 0.00 0.00 53 1011.9
20260903003125 95 285 2.6 8.7 0.00 0.00 0.00 51 1012.2
20260903002954 96 160 3.5 9.6 0.00 0.00 0.00 50 1011.7
20260903002229 96 23 3.5 7.8 0.00 0.00 0.00 48 1011.7
20260903001951 96 252 3.5 11.3 0.00 0.00 0.00 49 1011.8
20260903001603 96 65 3.5 11.3 0.00 0.00 0.00 49 1011.9
20260903001229 96 134 5.2 11.3 0.00 0.00 0.00 49 1011.7
20260903000729 96 42 5.2 8.7 0.00 0.00 0.00 49 1011.6
20260903000229 97 225 4.3 12.2 0.00 0.00 0.00 49 1011.8
20260903000054 97 75 2.6 11.3 0.00 0.00 0.00 48 1011.9
20260902235728 98 202 2.6 12.2 0.00 0.00 0.00 49 1011.6
20260902235229 98 158 3.5 9.6 0.00 0.00 0.00 48 1011.7
20260902234730 98 195 3.5 7.8 0.00 0.00 0.00 44 1011.6
20260902234554 98 302 3.5 7.8 0.00 0.00 0.00 43 1011.8
20260902234229 99 338 2.6 7.0 0.00 0.00 0.00 42 1011.4
20260902233957 99 110 2.6 8.7 0.00 0.00 0.00 40 1011.6
20260902233228 99 289 4.3 9.6 0.00 0.00 0.00 40 1011.6
20260902233104 99 1 3.5 9.6 0.00 0.00 0.00 39 1011.8
20260902232729 99 131 3.5 9.6 0.00 0.00 0.00 40 1011.4
20260902232229 100 148 3.5 7.8 0.00 0.00 0.00 40 1011.6
20260902231729 100 184 3.5 7.8 0.00 0.00 0.00 39 1011.4
20260902231603 100 144 3.5 9.6 0.00 0.00 0.00 39 1011.7
20260902231454 101 204 3.5 7.8 0.00 0.00 0.00 39 1011.4
20260902230729 101 90 4.3 7.0 0.00 0.00 0.00 39 1011.6
20260902230229 101 221 3.5 7.8 0.00 0.00 0.00 40 1011.6
20260902230059 101 79 3.5 9.6 0.00 0.00 0.00 39 1011.7
20260902225950 101 350 3.5 7.8 0.00 0.00 0.00 40 1011.6
20260902225231 102 340 3.5 10.4 0.00 0.00 0.00 40 1011.6
20260902224731 102 15 4.3 10.4 0.00 0.00 0.00 40 1011.6
20260902224625 101 277 2.6 8.7 0.00 0.00 0.00 40 1011.8
20260902224230 102 4 2.6 8.7 0.00 0.00 0.00 41 1011.7
20260902223731 102 240 3.5 7.8 0.00 0.00 0.00 41 1011.6
20260902223238 102 200 2.6 7.8 0.00 0.00 0.00 41 1011.6
20260902223100 101 115 2.6 8.7 0.00 0.00 0.00 42 1011.8
20260902222729 102 351 3.5 9.6 0.00 0.00 0.00 42 1011.4
20260902222230 102 20 4.3 9.6 0.00 0.00 0.00 42 1011.4
20260902221958 103 295 2.6 7.0 0.00 0.00 0.00 43 1011.4
20260902221557 102 319 1.7 9.6 0.00 0.00 0.00 42 1011.7
20260902221229 102 219 4.3 9.6 0.00 0.00 0.00 42 1011.6
20260902220728 102 138 3.5 9.6 0.00 0.00 0.00 43 1011.4